カタログに戻る

STARLINK-33853

運用中通信VLEO
NORAD 63684·PAYLOAD·🇺🇸 United States

打ち上げ Apr 28, 2025 から Cape Canaveral Space Force Station

Loading…

次のパス (今後24時間)

TLE

最新Source: CelesTrak SupGP

元期: Sep 14, 2026, 20:41 UTC

1 63684C 25085W   26257.86229167  .00052487  00000+0  19008-2 0  2572
2 63684  43.0041  42.2406 0001462 272.7239 143.7169 15.27557192    10

AllMySatでSTARLINK-33853をリアルタイム追跡

Download on the App Store